Location: Brachbach
(49.1847°N, 9.7240°E)
Time: 01:57:58
(UTC+00:00)

Cosmos 841 Rocket - Pass Details

Date: 23 May 2024
Orbit: 744 x 770 km, 74.0° (Epoch: 19 June)

Event Time Altitude Azimuth Distance (km) Brightness Sun altitude
Rises 00:24:30 0° 338° (NNW) 3,231 7.6 -18.6°
Reaches altitude 10° 00:26:53 10° 341° (NNW) 2,306 6.8 -18.5°
Maximum altitude 00:32:06 67° 64° (ENE) 831 3.8 -18.2°
Enters shadow 00:36:26 15° 145° (SE) 1,972 5.3 -18.0°
